Location: Home
(42.5358°N, 72.7383°W)
Time: 02:30:11
(UTC-04:00)

IRIDIUM 152 - Pass Details

Date: 05 July 2022
Orbit: 776 x 779 km, 86.4° (Epoch: 16 August)

Event Time Altitude Azimuth Distance (km) Brightness Sun altitude
Exits shadow 03:01:07 - 143° (SE) 3,269 ? -18.6°
Rises 03:01:11 0° 143° (SE) 3,250 ? -18.6°
Reaches altitude 10° 03:04:01 10° 128° (SE) 2,328 ? -18.3°
Maximum altitude 03:07:51 21° 80° (E) 1,682 ? -17.9°
Drops below altitude 10° 03:11:44 10° 32° (NNE) 2,340 ? -17.5°
Sets 03:14:34 0° 17° (NNE) 3,273 ? -17.2°
